SL-16 DEB, 22442

Orbit data source: Space-Track

SL-16 DEB, 22442 is space debris in LEO originally from a launch on Fri, 25 Dec 1992 UTC launched from the Tyuratam Missile And Space Complex (TTMTR). Debris objects in space refer to the collection of defunct objects orbiting the Earth. Examples of debris include non-operational satellites, rocket bodies, and fragments generated from explosions, collisions, or faulty payload assembly.

Loading next visibility...
Identifier
22442, 1992-093EK
Orbit
LEO
Country
Flag of CISCIS
Related business
Manufacturer
Unknown
Mission
Spacecraft
Bus & Motor
Unknown
Mass
Unknown
Launch date (UTC)
1992-12-25 (33 years ago)
Launch vehicle
Unknown
Launch site
Tyuratam Missile And Space Complex (TTMTR)
Object type
Payload
Rocket body
Debris
Shape & HBR
Unknown shape, 0.1 m
Radar Cross Section
Small (<0.1 m²)

Expand to show TLE details & history
Last TLE update: 7 hours ago

TLE from 7 hours ago
0 SL-16 DEB
1 22442U 92093EK  26127.10385624  .00004898  00000-0  12388-2 0  9997
2 22442  71.0978 218.3906 0088032 113.4361 247.6067 14.49102806713285
Epoch: 2026-05-07T02:29Z
TLE epoch observation values (Epoch: 2026-05-07T02:29:33.179Z)
Latitude
0.00004°
Longitude
-43.95243°
Altitude
755.332 km
Speed
7.464 km/s
True Right ascension
14h 33m 33s
True Declination
0° 00' 00"
Sunlit
Object was in full shadow at epoch
Visualization orbit readout
Latitude
Unknown
Longitude
Unknown
Altitude
Unknown
Speed
Unknown
Apparent Right ascension
Unknown
Apparent Declination
Unknown
Sunlit
N/A
Visualization observer readout
Local Sidereal Time
17:23:06
Azimuth
Unknown
Elevation
Unknown
Doppler factor
Unknown
Orbital elements
Apogee altitude
789.005 km
Perigee altitude
663.919 km
Semi-major axis
7,104.599 km
Eccentricity
0.0088
Inclination
71.0978°
RAAN
218.3906°
Arg. of periapsis
113.4361°
True anomaly
246.67793°
Mean anomaly
247.6067°
Eccentric anomaly
247.14192°
Mean motion
3.62438 °/min
Orbital period
99.33 mins
BSTAR
0.0012388
Loading maneuver chart data...
Computing Atmospheric mass density...
Loading historical data...
Loading historical data...
Loading historical data...
Loading historical data...
Loading historical data...
Loading historical data...
Loading historical data...

Documentation

Showing up to 5 results
|